Regional Weather Roundup
Issued by NWS

Home | Current Version | Previous Version | Graphics & Text | Print | Product List | Glossary On
Versions: 1 2 3 4 5 6 7 8 9 10 11 12 13 14 15 16 17 18 19 20 21 22 23 24 25 26 27 28 29 30 31 32 33 34 35 36 37 38 39 40 41 42 43 44 45 46 47 48 49 50
000
ASUS45 KBOI 211210
RWRID
WEATHER ROUNDUP FOR IDAHO
NATIONAL WEATHER SERVICE BOISE ID
600 AM MDT SUN SEP 21 2014

NOTE: "FAIR" INDICATES FEW OR NO CLOUDS BELOW 12000 FEET
WITH NO SIGNIFICANT WEATHER AND/OR OBSTRUCTIONS TO VISIBILITY

IDZ012-014-211300-
SOUTHWEST IDAHO


CITY           SKY/WX    TMP DP  RH WIND       PRES   REMARKS
BOISE          MOCLDY    64  44  48 SE7       30.01S
CALDWELL       MOCLDY    54  43  66 E5        30.02S
MOUNTAIN HOME  CLOUDY    56  40  54 E6        30.02F HAZE
$$

IDZ016-017-211300-
SOUTHCENTRAL IDAHO


CITY           SKY/WX    TMP DP  RH WIND       PRES   REMARKS
BURLEY         MOCLDY    50  44  80 CALM      30.08S
JEROME         CLOUDY    64  41  42 E14       30.07F
TWIN FALLS     MOCLDY    57  39  51 SE9       30.08S
$$

IDZ019>023-211300-
SOUTHEAST IDAHO


CITY           SKY/WX    TMP DP  RH WIND       PRES   REMARKS
IDAHO FALLS    MOCLDY    49  42  77 N8        30.15S
POCATELLO      CLEAR     49  46  90 NE5       30.12S
REXBURG        PTCLDY    48  40  73 CALM      30.18R
$$

IDZ006-010-011-018-031-032-211300-
CENTRAL IDAHO MOUNTAINS


CITY           SKY/WX    TMP DP  RH WIND       PRES   REMARKS
MCCALL         CLEAR     45  38  76 CALM      30.14S
HAILEY         MOCLDY    54  39  58 NW12      30.19F
STANLEY          N/A     37  32  82 CALM      30.28F
SALMON         CLEAR     43  39  87 CALM      30.19R
CHALLIS        CLEAR     49  39  68 CALM      30.20F
$$

IDZ002-004-006-007-026-211300-
NORTHERN IDAHO


CITY           SKY/WX    TMP DP  RH WIND       PRES   REMARKS
LEWISTON       CLEAR     59  39  47 CALM      29.98R
LOWELL           N/A     51  49  92 NW3       30.06F
COEUR D`ALENE  CLEAR     61  45  55 N14       30.03F
MULLAN PASS    CLEAR     55  35  47 SE14G25   30.23F
$$



USA.gov is the U.S. government's official web portal to all federal, state and local government web resources and services.